GMT,Max TemperatureF,Mean TemperatureF,Min TemperatureF,Max Dew PointF,MeanDew PointF,Min DewpointF,Max Humidity, Mean Humidity, Min Humidity, Max Sea Level PressureIn, Mean Sea Level PressureIn, Min Sea Level PressureIn, Max VisibilityMiles, Mean VisibilityMiles, Min VisibilityMiles, Max Wind SpeedMPH, Mean Wind SpeedMPH, Max Gust SpeedMPH,PrecipitationIn, CloudCover, Events, WindDirDegrees
2013-12-1,47,40,32,45,39,30,93,89,83,30.57,30.52,30.48,12,7,6,9,6,,0.00,7,,58
2013-12-2,50,45,40,46,42,37,96,85,65,30.56,30.48,30.45,12,7,5,10,6,,0.00,7,Rain,68
2013-12-3,48,45,42,43,41,39,93,81,66,30.46,30.40,30.36,12,7,6,7,5,,0.00,8,,136
2013-12-4,50,44,37,48,42,34,94,85,74,30.59,30.47,30.36,16,7,1,20,8,28,0.03,5,Rain,339
2013-12-5,50,42,35,48,41,32,94,80,69,30.59,30.44,30.36,12,7,6,22,11,39,0.02,4,,297
2013-12-6,53,48,44,49,45,41,100,88,80,30.49,30.46,30.42,12,7,5,12,8,,0.00,4,Rain,309
2013-12-7,50,46,41,48,44,41,100,89,76,30.46,30.37,30.30,19,8,5,14,6,,0.01,6,Fog-Rain,267
2013-12-8,53,50,48,50,48,46,94,89,79,30.37,30.32,30.27,12,7,6,16,13,,0.00,5,Rain,239
2013-12-9,51,48,44,46,44,42,93,81,67,30.38,30.33,30.30,19,8,6,14,10,,0.00,3,,195
2013-12-10,54,51,48,50,46,43,94,81,69,30.38,30.34,30.30,12,7,4,15,11,29,0.00,6,,187
2013-12-11,51,46,42,50,46,41,100,91,82,30.36,30.26,30.21,5,3,2,13,10,23,0.00,5,,165
2013-12-12,55,52,49,52,51,48,98,89,79,30.23,30.15,30.06,9,4,2,20,14,36,0.01,7,Rain,198
2013-12-13,54,50,46,54,48,37,100,85,61,30.27,30.07,29.98,9,5,2,25,18,44,0.04,6,Rain,247
2013-12-14,54,49,44,54,48,43,100,87,67,30.30,30.14,30.01,11,5,1,33,19,55,0.03,7,Rain,227
2013-12-15,55,50,46,54,52,46,100,98,91,30.16,30.02,29.92,6,2,0,29,15,46,0.16,7,Fog-Rain,213
2013-12-16,54,50,44,54,47,39,100,89,67,30.15,30.02,29.89,11,6,1,25,16,41,0.03,8,Rain,265
2013-12-17,50,44,37,45,40,37,100,84,66,30.25,30.13,29.98,19,10,6,18,7,33,0.00,5,Fog-Rain,144
2013-12-18,53,48,43,54,48,39,100,89,62,29.99,29.57,29.24,11,4,1,32,22,56,0.51,7,Rain,224
2013-12-19,47,43,39,40,37,33,88,74,50,29.95,29.65,29.44,16,7,2,32,14,52,0.12,4,Rain-Hail-Thunderstorm,272
2013-12-20,52,45,38,52,44,37,100,78,66,30.19,30.09,29.96,16,7,2,36,19,59,0.12,6,Rain,239
2013-12-21,53,51,49,52,48,39,100,88,54,30.01,29.87,29.74,10,5,0,36,25,48,0.04,6,Fog-Rain,236
2013-12-22,48,45,42,46,42,39,93,79,61,29.95,29.86,29.77,16,8,5,29,20,46,0.03,5,Rain-Hail,260
2013-12-23,54,50,45,54,50,44,100,94,79,29.92,29.27,28.77,16,4,1,45,26,70,0.47,8,Rain,219
2013-12-24,46,42,39,50,39,35,98,81,66,28.98,28.92,28.81,12,7,1,29,21,47,0.12,5,Rain-Hail,252
2013-12-25,45,41,37,41,38,36,93,83,70,29.24,29.02,28.91,12,8,4,26,16,45,0.02,5,Rain-Hail,273
2013-12-26,53,45,37,54,42,36,100,85,71,29.53,29.36,29.06,12,7,1,38,13,55,0.02,6,Rain,256
2013-12-27,50,47,41,53,43,39,99,77,63,29.33,29.16,29.03,14,7,1,38,25,55,0.01,3,Rain,259
2013-12-28,45,40,35,41,40,35,100,88,69,29.83,29.49,29.30,16,8,3,24,11,43,0.12,4,Rain,287
2013-12-29,51,44,36,50,43,35,100,88,69,30.08,29.97,29.83,16,8,3,26,13,45,0.04,5,Rain,245
2013-12-30,52,50,48,52,48,45,100,92,81,29.85,29.74,29.53,12,6,2,32,23,62,0.12,6,Rain,228
2013-12-31,50,46,43,50,43,36,100,78,47,29.67,29.52,29.44,16,8,2,25,20,47,0.08,6,Rain-Hail,231